Погода в Бажуках

Россия / Пермский край     57°11′33″N   56°29′44″E
темп.,
°C
ветер,
м/с
пор.,
м/с
влажн.,
%
обл.,
%
осадки,
мм/ч
давл.,
гПа
погр.,
м
25 января, пн
пн2523:00−8зюз2296100 0.1 102431
02:00−4юз1396100 0.1 1024105
05:00−1ююз129898 0.1 102544
08:00+1ююз36100100 0.6 1025186
11:00+1юз410100100 0.7 1025285
14:00+1юз511100100 0.2 1026392
17:00−1юз61296100 0.6 1027575
20:00−2юз5119598 0.4 1028496
26 января, вт
вт2623:00−3юз6139185 0.4 1028482
02:00−2юз5129096 0.0 1029569
05:00−4юз4109395 0.0 1029316
08:00−6ююз4109398 0.0 1029410
11:00−5юз4109399 0.1 1028455
14:00−2юз5990100 0.1 1028863
17:00−3юз51092100 0.1 1027583
20:00−3юз41093100 0.1 1027696
27 января, ср
ср2723:00−3юз4994100 0.1 1027533
02:00−4ююз51092100 0.1 1027398
05:00−6ююз4994100 0.1 1027385
08:00−6ююз5992100 0.1 1027482
11:00−7ююз51092100 0.1 1027532
14:00−6ююз61292100 0.1 1027551
17:00−6ююз51292100 0.1 1025524
20:00−5ююз61491100 0.0 1024583
28 января, чт
чт2823:00−5юз71490100 0.1 1023644
02:00−6ююз71489100 0.0 1022540
05:00−6ююз81588100 0.0 1021537
08:00−6юз71589100 0.1 1020571
11:00−5юз71593100 0.3 1021563
14:00−4юз71295100 1.1 1021539
17:00−4юз61193100 1.8 1021516
20:00−5юз41091100 0.1 1023396
29 января, пт
пт2923:00−8ююз3894100 0.2 1023241
02:00−10ю2395100 0.0 102329
05:00−10ю3394100 0.0 102370
08:00−10ююв2392100 0.0 102351
11:00−9юв2492100 0.0 1022139
14:00−5вюв3588100 0.0 1021266
17:00−5в4890100 0.0 1019204
20:00−7в4991100 0.0 1018207